Skip Page Navigation
NASA JPL Caltech
NASA Logo - Jet Propulsion Laboratory + View the NASA Portal
+ Center for Near-Earth Object Studies
JPL Home Earth Solar System Stars & Galaxies Technology
JPL Solar System Dynamics
BODIES ORBITS EPHEMERIDES TOOLS PHYSICAL DATA DISCOVERY FAQ SITE MAP
IMPORTANT: The SSD Announcement email list is now available. Major changes are coming in the near future, including possible hostname and/or URL changes. To be notified of such changes, subscribe to this email list.

Please visit this page for more details.


JPL Small-Body Database Browser
Search: [ help ]  
215698 (2003 YE117)
Classification: Main-belt Asteroid          SPK-ID: 2215698
Ephemeris | Orbit Diagram | Orbital Elements | Mission Design | Physical Parameters | Discovery Circumstances ]

[ show orbit diagram ]
Orbital Elements at Epoch 2459000.5 (2020-May-31.0) TDB
Reference: JPL 14 (heliocentric ecliptic J2000)
 Element Value Uncertainty (1-sigma)   Units 
e .06025590750195302 5.0361e-08  
a 2.23667686449462 1.1473e-08 au
q 2.101903870235874 1.1634e-07 au
i 3.652397903881729 4.6521e-06 deg
node 89.76117872767941 8.3366e-05 deg
peri 283.496050872641 9.2711e-05 deg
M 58.77864550146032 3.8357e-05 deg
tp 2458801.010349991829
(2019-Nov-13.51034999)
0.00013052 TDB
period 1221.808930611667
3.35
9.4011e-06
2.574e-08
d
yr
n .2946450880988202 2.2671e-09 deg/d
Q 2.371449858753366 1.2165e-08 au
  Orbit Determination Parameters
   # obs. used (total)      413  
   data-arc span      5882 days (16.10 yr)  
   first obs. used      2003-12-19  
   last obs. used      2020-01-26  
   planetary ephem.      DE431  
   SB-pert. ephem.      SB431-N16  
   condition code      0  
   norm. resid. RMS      .58292  
   source      ORB  
   producer      Otto Matic  
   solution date      2020-Feb-25 03:26:17  

Additional Information
 Earth MOID = 1.10552 au 
 Jupiter MOID = 2.85563 au 
 T_jup = 3.633 
[ show covariance matrix ]

Ephemeris | Orbit Diagram | Orbital Elements | Mission Design | Physical Parameters | Discovery Circumstances ]

Physical Parameter Table
Parameter Symbol Value Units Sigma Reference Notes
absolute magnitude H 16.9   n/a MPO494188  

215698 (2003 YE117)          Discovered 2003-Dec-27 by LINEAR at Socorro
Reference: 20090607/Numbers.arcLast Updated: 2009-06-08
Ephemeris | Orbit Diagram | Orbital Elements | Mission Design | Physical Parameters | Discovery Circumstances ]
ABOUT SSD CREDITS/AWARDS PRIVACY/COPYRIGHT GLOSSARY LINKS
FirstGov 2020-Jun-03 01:17 UT
(server date/time)  
NASA Home Page
Site Manager:   Ryan S. Park
Webmaster  Alan B. Chamberlin